CFG785 EVRA-LOWI

Flight info

Callsign CFG785
Flight time N/A
Altitude 35000
Route BERIL DCT BOKSU/N0449F360 DCT SUW DCT TOZEW DCT TENVO DCT KULUV DCT REMVU P861 RASAN DCT DOBEN DCT NIRGO T108 OSTES/N0446F370 T700 DEGIN/N0449F360 P31 DOSEL/N0448F370 M736 MANAL/N0458F310 M736 TULSI TULSI3A
Aircraft A320/M-SDE3FGHIRWY/LB1

Departure

Time 2026-05-04 13:06
Airport Riga International Airport (EVRA)

Arrival

Time N/A
Airport Innsbruck Airport (LOWI)
Time Latitude Longitude Altitude Speed Heading
2026-05-04 12:37 56.92189 23.97742 44 ft 0 kts
2026-05-04 12:48 56.92188 23.97742 44 ft 0 kts
2026-05-04 12:57 56.92177 23.97740 43 ft 4 kts
2026-05-04 12:57 56.92150 23.97737 43 ft 4 kts
2026-05-04 12:57 56.92123 23.97735 41 ft 4 kts
2026-05-04 12:57 56.92096 23.97733 44 ft 4 kts
2026-05-04 12:58 56.92086 23.97732 40 ft 2 kts
2026-05-04 13:00 56.92090 23.97733 44 ft 3 kts
2026-05-04 13:00 56.92133 23.97684 44 ft 10 kts 282°
2026-05-04 13:00 56.92141 23.97530 44 ft 14 kts 274°
2026-05-04 13:01 56.92204 23.97471 44 ft 11 kts
2026-05-04 13:01 56.92292 23.97488 44 ft 15 kts
2026-05-04 13:01 56.92389 23.97507 44 ft 13 kts
2026-05-04 13:01 56.92474 23.97527 42 ft 12 kts
2026-05-04 13:02 56.92550 23.97541 44 ft 10 kts
2026-05-04 13:02 56.92615 23.97552 44 ft 9 kts
2026-05-04 13:02 56.92678 23.97561 44 ft 14 kts
2026-05-04 13:02 56.92796 23.97579 42 ft 17 kts
2026-05-04 13:03 56.92906 23.97598 44 ft 15 kts
2026-05-04 13:03 56.93014 23.97616 44 ft 17 kts
2026-05-04 13:03 56.93127 23.97633 42 ft 15 kts
2026-05-04 13:03 56.93238 23.97573 44 ft 17 kts 350°
2026-05-04 13:04 56.93350 23.97578 44 ft 15 kts
2026-05-04 13:04 56.93448 23.97570 44 ft 13 kts 329°
2026-05-04 13:04 56.93490 23.97436 44 ft 13 kts 274°
2026-05-04 13:04 56.93481 23.97300 42 ft 8 kts 204°
2026-05-04 13:05 56.93434 23.97289 43 ft 0 kts 186°
2026-05-04 13:05 56.93393 23.97282 42 ft 30 kts 185°
2026-05-04 13:06 56.92945 23.97209 44 ft 95 kts 185°
2026-05-04 13:06 56.92102 23.97071 46 ft 147 kts 184°
2026-05-04 13:06 56.91047 23.96893 480 ft 154 kts 188°
2026-05-04 13:06 56.89965 23.96695 1061 ft 158 kts 192°
2026-05-04 13:07 56.88878 23.96468 1721 ft 160 kts 194°
2026-05-04 13:07 56.87682 23.96210 2041 ft 182 kts 193°
2026-05-04 13:07 56.86367 23.95926 2418 ft 202 kts 197°
2026-05-04 13:07 56.85041 23.95065 2995 ft 206 kts 216°
2026-05-04 13:08 56.83930 23.93331 3496 ft 219 kts 234°
2026-05-04 13:08 56.82960 23.91121 4253 ft 226 kts 234°
2026-05-04 13:08 56.81986 23.88860 5158 ft 228 kts 234°
2026-05-04 13:08 56.81004 23.86578 6076 ft 229 kts 233°
2026-05-04 13:09 56.80013 23.84271 6948 ft 232 kts 233°
2026-05-04 13:09 56.79010 23.81940 7771 ft 235 kts 233°
2026-05-04 13:09 56.77992 23.79577 8558 ft 239 kts 233°
2026-05-04 13:09 56.76935 23.77207 9348 ft 243 kts 229°
2026-05-04 13:10 56.75755 23.74957 10017 ft 252 kts 228°
2026-05-04 13:10 56.74484 23.72545 10226 ft 275 kts 229°
2026-05-04 13:10 56.73106 23.69932 10401 ft 298 kts 229°
2026-05-04 13:10 56.71623 23.67127 10727 ft 313 kts 228°
2026-05-04 13:11 56.70098 23.64251 11339 ft 319 kts 228°
2026-05-04 13:11 56.68549 23.61335 12013 ft 322 kts 228°
2026-05-04 13:11 56.66982 23.58390 12686 ft 326 kts 228°
2026-05-04 13:11 56.65392 23.55411 13345 ft 330 kts 228°
2026-05-04 13:12 56.63808 23.52453 13941 ft 333 kts 228°
2026-05-04 13:12 56.62185 23.49420 14524 ft 336 kts 228°
2026-05-04 13:12 56.60572 23.46323 15110 ft 339 kts 230°
2026-05-04 13:12 56.58989 23.43125 15695 ft 342 kts 227°
2026-05-04 13:13 56.57113 23.40410 16290 ft 350 kts 215°
2026-05-04 13:13 56.54854 23.38622 16855 ft 361 kts 200°
2026-05-04 13:13 56.53195 23.38100 17226 ft 371 kts 189°
2026-05-04 13:13 56.50581 23.38403 17776 ft 384 kts 177°
2026-05-04 13:14 56.47934 23.39205 18315 ft 387 kts 177°
2026-05-04 13:14 56.45270 23.40003 18846 ft 389 kts 177°
2026-05-04 13:14 56.42583 23.40791 19369 ft 392 kts 177°
2026-05-04 13:14 56.39889 23.41575 19880 ft 394 kts 177°
2026-05-04 13:15 56.37177 23.42289 20391 ft 393 kts 182°
2026-05-04 13:15 56.34469 23.42304 20882 ft 387 kts 191°
2026-05-04 13:15 56.31789 23.41799 21364 ft 388 kts 192°
2026-05-04 13:15 56.29098 23.41281 21846 ft 390 kts 192°
2026-05-04 13:16 56.26390 23.40761 22317 ft 392 kts 192°
2026-05-04 13:16 56.23667 23.40244 22723 ft 395 kts 192°
2026-05-04 13:16 56.20923 23.39734 22833 ft 396 kts 192°
2026-05-04 13:16 56.18180 23.39233 22848 ft 396 kts 192°
2026-05-04 13:17 56.15430 23.38730 23082 ft 399 kts 192°
2026-05-04 13:17 56.12665 23.38216 23522 ft 400 kts 192°
2026-05-04 13:17 56.09885 23.37695 23844 ft 403 kts 192°
2026-05-04 13:17 56.07094 23.37172 24166 ft 405 kts 192°
2026-05-04 13:18 56.04277 23.36651 24509 ft 407 kts 192°
2026-05-04 13:18 56.01454 23.36137 24868 ft 408 kts 191°
2026-05-04 13:18 55.98624 23.35619 25206 ft 410 kts 192°
2026-05-04 13:18 55.95786 23.35096 25508 ft 412 kts 192°
2026-05-04 13:19 55.92921 23.34565 25796 ft 414 kts 192°
2026-05-04 13:19 55.90052 23.34034 26101 ft 416 kts 192°
2026-05-04 13:19 55.87168 23.33505 26410 ft 418 kts 192°
2026-05-04 13:19 55.84308 23.32984 26708 ft 419 kts 191°
2026-05-04 13:20 55.81408 23.32454 27007 ft 420 kts 192°
2026-05-04 13:20 55.78493 23.31921 27293 ft 421 kts 191°
2026-05-04 13:20 55.75572 23.31391 27576 ft 423 kts 191°
2026-05-04 13:20 55.72609 23.30855 27853 ft 424 kts 191°
2026-05-04 13:21 55.69708 23.30326 28113 ft 425 kts 191°
2026-05-04 13:21 55.66761 23.29790 28296 ft 427 kts 191°
2026-05-04 13:21 55.63794 23.29248 28515 ft 429 kts 191°
2026-05-04 13:21 55.60829 23.28702 28738 ft 430 kts 191°
2026-05-04 13:22 55.57845 23.28156 28980 ft 431 kts 191°
2026-05-04 13:22 55.54861 23.27615 29202 ft 431 kts 191°
2026-05-04 13:22 55.51878 23.27080 29515 ft 430 kts 191°
2026-05-04 13:22 55.48907 23.26549 29829 ft 428 kts 191°
2026-05-04 13:23 55.45945 23.26019 30122 ft 427 kts 191°
2026-05-04 13:23 55.42990 23.25494 30361 ft 427 kts 191°
2026-05-04 13:23 55.40037 23.24972 30561 ft 427 kts 191°
2026-05-04 13:23 55.37079 23.24446 30760 ft 427 kts 191°
2026-05-04 13:24 55.34117 23.23917 30968 ft 427 kts 191°
2026-05-04 13:24 55.31165 23.23387 31203 ft 427 kts 191°
2026-05-04 13:24 55.28205 23.22854 31445 ft 427 kts 191°
2026-05-04 13:25 55.22292 23.21798 31857 ft 427 kts 191°
2026-05-04 13:25 55.19376 23.21281 32080 ft 427 kts 191°
2026-05-04 13:25 55.16419 23.20758 32292 ft 427 kts 191°
2026-05-04 13:25 55.13459 23.20235 32473 ft 428 kts 191°
2026-05-04 13:26 55.10494 23.19713 32655 ft 429 kts 191°
2026-05-04 13:26 55.07528 23.19190 32881 ft 428 kts 191°
2026-05-04 13:26 55.04563 23.18665 33094 ft 428 kts 191°
2026-05-04 13:26 55.01600 23.18142 33324 ft 428 kts 191°
2026-05-04 13:27 54.98641 23.17618 33537 ft 427 kts 191°
2026-05-04 13:27 54.95685 23.17096 33758 ft 427 kts 191°
2026-05-04 13:27 54.92724 23.16580 33966 ft 427 kts 191°
2026-05-04 13:27 54.89775 23.16070 34155 ft 427 kts 191°
2026-05-04 13:28 54.86811 23.15557 34314 ft 427 kts 191°
2026-05-04 13:28 54.83857 23.15042 34470 ft 428 kts 191°
2026-05-04 13:28 54.80892 23.14525 34646 ft 428 kts 191°
2026-05-04 13:28 54.77929 23.14008 34809 ft 428 kts 190°
2026-05-04 13:29 54.71986 23.12976 34886 ft 429 kts 190°
2026-05-04 13:29 54.66043 23.11945 34889 ft 429 kts 190°
2026-05-04 13:30 54.60101 23.10931 34876 ft 430 kts 190°
2026-05-04 13:30 54.54142 23.09918 34887 ft 430 kts 190°
2026-05-04 13:31 54.48184 23.08898 34887 ft 430 kts 190°
2026-05-04 13:31 54.42261 23.07883 34866 ft 431 kts 190°
2026-05-04 13:32 54.36301 23.06855 34869 ft 431 kts 190°
2026-05-04 13:32 54.30385 23.05452 34858 ft 426 kts 199°
2026-05-04 13:33 54.24855 23.01977 34865 ft 423 kts 205°
2026-05-04 13:33 54.19371 22.98284 34874 ft 424 kts 205°
2026-05-04 13:34 54.13873 22.94610 34878 ft 424 kts 205°
2026-05-04 13:34 54.08659 22.90113 34861 ft 418 kts 219°
2026-05-04 13:35 54.03223 22.78820 34872 ft 413 kts 241°
2026-05-04 13:36 54.00375 22.70318 34878 ft 414 kts 241°
2026-05-04 13:36 53.97501 22.61824 34898 ft 414 kts 241°
2026-05-04 13:37 53.94623 22.53352 34904 ft 414 kts 241°
2026-05-04 13:37 53.91748 22.44894 34905 ft 414 kts 241°
2026-05-04 13:38 53.88868 22.36439 34904 ft 414 kts 241°
2026-05-04 13:38 53.85988 22.28002 34905 ft 413 kts 241°
2026-05-04 13:39 53.83100 22.19589 34903 ft 413 kts 240°
2026-05-04 13:39 53.80198 22.11177 34906 ft 414 kts 240°
2026-05-04 13:40 53.77295 22.02779 34909 ft 414 kts 240°
2026-05-04 13:40 53.74391 21.94394 34896 ft 414 kts 240°
2026-05-04 13:41 53.71472 21.86009 34900 ft 414 kts 240°
2026-05-04 13:41 53.68543 21.77646 34926 ft 413 kts 240°
2026-05-04 13:42 53.64271 21.65104 34931 ft 412 kts 242°
2026-05-04 13:42 53.61467 21.56684 34930 ft 412 kts 242°
2026-05-04 13:43 53.58649 21.48304 34931 ft 411 kts 241°
2026-05-04 13:43 53.55807 21.39939 34909 ft 412 kts 241°
2026-05-04 13:44 53.52959 21.31587 34913 ft 412 kts 241°
2026-05-04 13:44 53.50100 21.23232 34912 ft 412 kts 241°
2026-05-04 13:45 53.47247 21.14889 34914 ft 412 kts 241°
2026-05-04 13:45 53.44382 21.06552 34922 ft 412 kts 241°
2026-05-04 13:46 53.41510 20.98226 34921 ft 412 kts 241°
2026-05-04 13:46 53.38639 20.89923 34912 ft 412 kts 241°
2026-05-04 13:47 53.35753 20.81635 34907 ft 412 kts 241°
2026-05-04 13:47 53.32861 20.73359 34914 ft 412 kts 241°
2026-05-04 13:48 53.29979 20.65135 34915 ft 412 kts 241°
2026-05-04 13:48 53.27056 20.56806 34918 ft 413 kts 241°
2026-05-04 13:49 53.24169 20.48596 34927 ft 413 kts 240°
2026-05-04 13:49 53.21257 20.40331 34911 ft 413 kts 240°
2026-05-04 13:50 53.18329 20.32081 34917 ft 414 kts 240°
2026-05-04 13:50 53.15389 20.23825 34922 ft 414 kts 240°
2026-05-04 13:51 53.12448 20.15585 34926 ft 414 kts 240°